Погода в Мантуе

Италия     45°09′55″N   10°47′32″E
темп.,
°C
ветер,
м/с
пор.,
м/с
влажн.,
%
обл.,
%
осадки,
мм/ч
давл.,
гПа
погр.,
м
11 мая, вт
вт1123:00+17в61362100 0.0 1014436
02:00+16вюв51162100 0.0 1014384
05:00+16в51262100 0.0 1012434
08:00+14всв51281100 0.6 1012393
11:00+14в81289100 0.3 1013771
14:00+16в61082100 0.7 1010554
17:00+15в41089100 1.3 1009387
20:00+13в3697100 7.1 1008244
12 мая, ср
ср1223:00+13зюз3598100 5.4 1008245
02:00+12зсз3797100 12.9 1007302
05:00+12зюз2498100 3.1 1007226
08:00+12з4696100 3.8 1007306
11:00+15з347965 0.1 1008533
14:00+17ююз2272100 1.0 1008790
17:00+17юв3370100 1.1 1007855
20:00+14вюв3685100 1.2 1007205
13 мая, чт
чт1323:00+12в349595 0.1 100791
02:00+12вюв0193100 0.4 100616
05:00+11юз2296100 0.6 100576
08:00+12зсз1194100 0.7 100576
11:00+14сз2289100 0.4 1005302
14:00+18всв326949 1.0 1004921
17:00+18в436613 0.3 1003920
20:00+14в368524 1.0 1004141
14 мая, пт
пт1423:00+11вюв399491 1.8 1005215
02:00+11юв239598 2.6 100687
05:00+12зсз1195100 0.3 100623
08:00+12зюз119490 1.1 1008109
11:00+14сз337716 0.2 1009500
14:00+18юз215897 0.2 10081340
17:00+16з4474100 0.8 1008427
20:00+14ссз1183100 1.2 100816
15 мая, сб
сб1523:00+12вюв008480 0.1 100910
02:00+10вюв119319 1.0 100911
05:00+10зсз119394 0.1 100923
08:00+12з358894 0.1 1010220
11:00+15з237576 0.1 1011469
14:00+18юз326180 1.0 10101209
17:00+18ююв2260100 1.3 10091196
20:00+15вюв347897 1.6 100953